INTELSAT 23 (IS-23)

Last updated on Fri Jul 11 2025 00:02:43 GMT+0000 (Coordinated Universal Time)

1 38867U 12057A 25191.47979324 -.00000272 00000+0 00000+0 0 9990 2 38867 0.0290 110.2975 0000414 334.2017 323.8788 1.00277859 46524
UTC large
Height (km)
Speed (km/s)
/
Latitude / Longitude
Inclination (degrees)
Orbital Period (minutes)
Azimuth
Elevation
Range (km)
Doppler Factor

Next 0 passes for location: London (51.5072 / 0.1276)

Sorry there are no passes over London.